STARLINK-32511, 61727

Orbit data source: Space-Track

STARLINK-32511, 61727 is a payload satellite owned by SpaceX/Seattle (US) in LEO that was launched on Wed, 30 Oct 2024 UTC via an FALCON 9 launch vehicle from the Air Force Eastern Test Range (AFETR). Payload-class satellites include a variety of spacecraft equipped with specific instruments for various scientific and technological missions. These include communications satellites like Starlink; space stations such as the ISS; scientific satellites like the Hubble; Earth observation satellites from companies like Planet Labs, Umbra, and HawkEye 360; GPS; miniature CubeSats for education and research; and military/defense satellites.

Loading next visibility...
Identifier
61727, 2024-196W
Orbit
LEO
Country
Flag of USUS
Related business
Manufacturer
SpaceX/Seattle
Mission
Operational Commercial Communications
Bus & Motor
STARLINK V2M, Unknown motor
Mass
730 kg wet, ~700 kg dry
Launch date (UTC)
2024-10-30 (2 years ago)
Launch vehicle
FALCON 9
Launch site
Air Force Eastern Test Range (AFETR)
Object type
Payload
Rocket body
Debris
Shape & HBR
Box + 2 Pan, 17.7 m
Radar Cross Section
33.884 m², Large (>1 m²)

Expand to show TLE details & history
Last TLE update: 16 hours ago

TLE from 16 hours ago
0 STARLINK-32511
1 61727U 24196W   26171.19881359 -.00000580  00000-0 -60360-5 0  9991
2 61727  53.1631 345.0192 0001169  90.1801 269.9335 15.34400200 92854
Epoch: 2026-06-20T04:46Z
TLE epoch observation values (Epoch: 2026-06-20T04:46:17.494Z)
Latitude
-0.00005°
Longitude
5.0294°
Altitude
463.605 km
Speed
7.636 km/s
True Right ascension
23h 00m 04s
True Declination
0° 00' 00"
Sunlit
Object was in daylight at epoch
Visualization orbit readout
Latitude
Unknown
Longitude
Unknown
Altitude
Unknown
Speed
Unknown
Apparent Right ascension
Unknown
Apparent Declination
Unknown
Sunlit
N/A
Visualization observer readout
Local Sidereal Time
07:22:49
Azimuth
Unknown
Elevation
Unknown
Doppler factor
Unknown
Orbital elements
Apogee altitude
463.759 km
Perigee altitude
462.159 km
Semi-major axis
6,841.096 km
Eccentricity
0.00012
Inclination
53.1631°
RAAN
345.0192°
Arg. of periapsis
90.1801°
True anomaly
269.9201°
Mean anomaly
269.9335°
Eccentric anomaly
269.9268°
Mean motion
3.83579 °/min
Orbital period
93.85 mins
BSTAR
-0.000006036
Loading maneuver chart data...
Computing Atmospheric mass density...
Loading historical data...
Loading historical data...
Loading historical data...
Loading historical data...
Loading historical data...
Loading historical data...
Loading historical data...

Documentation

Showing up to 5 results
|